Location: Newark
(35.6000°N, 117.0333°E)
Time: 11:54:58
(UTC+00:00)

Hubble Space Telescope - Pass Details

Date: 23 August 2019
Orbit: 536 x 540 km, 28.5° (Epoch: 22 September)

Event Time Altitude Azimuth Distance (km) Brightness Sun altitude
Rises 11:35:59 0° 258° (WSW) 2,668 5.4 -9.3°
Reaches altitude 10° 11:38:56 10° 236° (WSW) 1,776 3.9 -9.9°
Maximum altitude 11:41:28 16° 198° (SSW) 1,437 2.9 -10.3°
Drops below altitude 10° 11:44:00 10° 160° (SSE) 1,773 3.0 -10.8°
Enters shadow 11:44:33 - 154° (SSE) 1,911 3.1 -10.9°
